{"data":{"norad_id":58075,"intl_designator":"2023-160A","name":"STARLINK-30604","alt_names":[],"object_type":"PAYLOAD","status":"ACTIVE","operator":null,"country":"US","launch_date":"2023-10-18","launch_site_code":"AFETR","launch_vehicle":null,"mission":null,"orbit_class":"UNKNOWN","rcs_meters":null,"size_class":null,"mass_kg":null,"dimensions":null,"purposes":["comms"],"wikipedia_slug":null,"has_3d_model":false,"image_url":null,"decayed_at":null,"tle_current":{"epoch":"2026-05-25T00:48:58.471776Z","epoch_age_seconds":82825,"freshness":"FRESH","line1":"1 58075U 23160A   26145.03401009  .00008089  00000+0  30316-3 0  9992","line2":"2 58075  43.0030   6.5726 0001747 274.1687  85.8965 15.27577707144623","mean_motion":15.27577707,"eccentricity":0.0001747,"inclination_deg":43.003,"raan_deg":6.5726,"arg_perigee_deg":274.1687,"mean_anomaly_deg":85.8965,"bstar":0.00030316,"rev_number":14462,"period_min":94.266890214574,"perigee_km":481.85731170466,"apogee_km":484.25461252563,"semimajor_km":6861.1929621151,"source":"CELESTRAK","updated_at":"2026-05-25T13:38:18.503538Z"}}}